Volver al catálogo

ECHOSTAR 4

ActivoComunicacionesGEO
NORAD 25331·PAYLOAD·🇺🇸 United States

Lanzado May 7, 1998 desde Baikonur Cosmodrome

Loading…

TLE

ActualizadoSource: Space-Track

Época: Sep 14, 2026, 13:18 UTC

1 25331U 98028A   26257.55484978 -.00000017  00000-0  00000-0 0  9992
2 25331  11.8752  30.5312 0010907 265.7850 107.6304  0.98949756103220

Sigue ECHOSTAR 4 en tiempo real con AllMySat

Download on the App Store